sat.trackr.live / text

‹ back to catalog

STARLINK-6251

NORAD 57087 · 2023-088AR

PAYLOAD ACTIVE UNKNOWN

§ Identity

Operator
Country
US
Launch date
2023-06-22
Launch site
AFWTR
Launch vehicle
Mass (kg)
RCS (m²)

Purposes: comms

External: N2YO · Heavens-Above · Gunter

§ Orbital elements

Epoch: 2026-05-24T17:29:59.960544Z

Period
94.27 min
Inclination
43.0064°
Eccentricity
0.0001840
Mean motion
15.27571638 rev/d
Perigee alt
481.8 km
Apogee alt
484.3 km
Semi-major
6,861.2 km
B*
7.2128e-5
RAAN
26.3487°
Arg perigee
273.1615°
Mean anomaly
86.9026°
Rev number
16,213

§ Raw data

STARLINK-62511 57087U 23088AR  26144.72916621  .00001722  00000+0  72128-4 0  99942 57087  43.0064  26.3487 0001840 273.1615  86.9026 15.27571638162133

JSON: /api/v1/satellites/57087 · /tle

For live sub-satellite position, see the globe view (requires WebGL).

§ Visibility from observer

Set your observer location to see the next 7 days of passes ≥ 10°. The values pass through the URL so the page stays shareable.

No JS? Fill the form by hand. The geolocation button needs JavaScript.